EW4931 Weather Reports


time (UTC)temp
C
wind
direction
speed
KPH
gust
KPH
rain 1hr
cm
rain 24hr
cm
rain mn
cm
humidity
%
barometer
mb
20260508044115 6 82 4.8 6.4 0.00 0.00 0.00 66 1024.9
20260508043615 6 152 0.0 4.8 0.00 0.00 0.00 67 1024.9
20260508043112 6 97 0.0 3.2 0.00 0.00 0.00 67 1024.8
20260508042613 6 97 0.0 1.6 0.00 0.00 0.00 70 1024.8
20260508042113 6 97 0.0 0.0 0.00 0.00 0.00 71 1024.7
20260508041837 5 97 0.0 1.6 0.00 0.00 0.00 73 1024.6
20260508041113 5 97 0.0 1.6 0.00 0.00 0.00 75 1024.5
20260508040613 4 97 1.6 6.4 0.00 0.00 0.00 76 1024.6
20260508040113 3 96 1.6 6.4 0.00 0.00 0.00 78 1024.5
20260508035613 3 94 3.2 6.4 0.00 0.00 0.00 80 1024.4
20260508035114 2 94 3.2 6.4 0.00 0.00 0.00 81 1024.3
20260508034613 2 106 1.6 3.2 0.00 0.00 0.00 81 1024.3
20260508034113 2 106 0.0 0.0 0.00 0.00 0.00 82 1024.3
20260508033613 2 106 0.0 0.0 0.00 0.00 0.00 84 1024.3
20260508033113 1 106 0.0 0.0 0.00 0.00 0.00 84 1024.2
20260508032836 1 106 0.0 0.0 0.00 0.00 0.00 85 1024.1
20260508032113 1 106 0.0 0.0 0.00 0.00 0.00 85 1024.0
20260508031613 1 106 0.0 0.0 0.00 0.00 0.00 86 1024.0
20260508031113 1 106 0.0 0.0 0.00 0.00 0.00 86 1023.9
20260508030838 1 106 0.0 1.6 0.00 0.00 0.00 86 1023.8
20260508030113 1 106 1.6 3.2 0.00 0.00 0.00 86 1023.8
20260508025613 1 106 1.6 3.2 0.00 0.00 0.00 86 1023.7
20260508025112 0 106 1.6 3.2 0.00 0.00 0.00 87 1023.6
20260508024612 0 106 0.0 3.2 0.00 0.00 0.00 87 1023.6
20260508024337 0 106 1.6 1.6 0.00 0.00 0.00 87 1023.6
20260508023612 1 106 1.6 1.6 0.00 0.00 0.00 87 1023.5
20260508023112 0 106 0.0 3.2 0.00 0.00 0.00 88 1023.5
20260508022612 0 106 1.6 3.2 0.00 0.00 0.00 88 1023.5
20260508022112 0 106 1.6 3.2 0.00 0.00 0.00 87 1023.4
20260508021611 0 106 3.2 3.2 0.00 0.00 0.00 87 1023.4
20260508021111 0 106 3.2 3.2 0.00 0.00 0.00 87 1023.3
20260508021057 0 106 0.0 0.0 0.00 0.00 0.00 86 1023.4
20260508020112 0 106 0.0 0.0 0.00 0.00 0.00 87 1023.3
20260508015610 0 106 0.0 0.0 0.00 0.00 0.00 87 1023.3
20260508015111 0 106 0.0 0.0 0.00 0.00 0.00 86 1023.4
20260508014841 0 106 0.0 0.0 0.00 0.00 0.00 87 1023.3
20260508014111 0 106 0.0 0.0 0.00 0.00 0.00 87 1023.3
20260508013830 0 106 0.0 0.0 0.00 0.00 0.00 86 1023.2
20260508013111 0 106 0.0 1.6 0.00 0.00 0.00 87 1023.3
20260508012610 0 106 1.6 3.2 0.00 0.00 0.00 87 1023.2
20260508012110 0 106 1.6 3.2 0.00 0.00 0.00 87 1023.2
20260508011609 0 106 1.6 3.2 0.00 0.00 0.00 87 1023.1
20260508011329 0 106 1.6 3.2 0.00 0.00 0.00 86 1023.1
20260508010609 0 106 1.6 3.2 0.00 0.00 0.00 86 1023.0
20260508010109 0 106 1.6 3.2 0.00 0.00 0.00 86 1022.9
20260508005610 0 106 1.6 3.2 0.00 0.00 0.00 87 1022.9
20260508005110 0 106 3.2 4.8 0.00 0.00 0.00 88 1022.8
20260508004610 0 106 3.2 4.8 0.00 0.00 0.00 87 1022.9
20260508004110 0 106 3.2 3.2 0.00 0.00 0.00 86 1022.7
20260508003610 0 106 0.0 0.0 0.00 0.00 0.00 86 1022.6
20260508003110 0 106 0.0 0.0 0.00 0.00 0.00 86 1022.5
20260508002609 1 106 0.0 0.0 0.00 0.00 0.00 86 1022.4
20260508002330 1 106 0.0 0.0 0.00 0.00 0.00 85 1022.3
20260508001609 1 106 0.0 0.0 0.00 0.00 0.00 85 1022.3
20260508001110 1 106 0.0 0.0 0.00 0.00 0.00 85 1022.2
20260508000609 1 106 0.0 0.0 0.00 0.00 0.00 84 1022.2
20260508000109 1 106 0.0 0.0 0.00 0.00 0.00 84 1022.2
20260507235609 1 106 0.0 0.0 0.00 0.00 0.00 84 1022.2
20260507235108 1 106 0.0 0.0 0.00 0.00 0.00 84 1022.1
20260507234608 1 106 0.0 0.0 0.00 0.00 0.00 83 1022.1
20260507234109 1 106 0.0 0.0 0.00 0.00 0.00 82 1022.2
20260507233608 1 106 0.0 0.0 0.00 0.00 0.00 82 1022.1
20260507233108 1 106 0.0 0.0 0.00 0.00 0.00 81 1022.1
20260507232612 1 106 0.0 0.0 0.00 0.00 0.00 81 1022.0
20260507232108 1 106 0.0 0.0 0.00 0.00 0.00 81 1021.9
20260507231608 1 106 0.0 0.0 0.00 0.00 0.00 81 1021.9
20260507231107 1 106 0.0 0.0 0.00 0.00 0.00 80 1021.8
20260507230608 1 106 0.0 0.0 0.00 0.00 0.00 80 1021.8
20260507230108 1 106 0.0 0.0 0.00 0.00 0.00 80 1021.7
20260507225608 1 106 0.0 0.0 0.00 0.00 0.00 80 1021.7
20260507225107 1 106 0.0 0.0 0.00 0.00 0.00 79 1021.6
20260507224611 1 106 0.0 0.0 0.00 0.00 0.00 79 1021.6
20260507224107 1 106 0.0 0.0 0.00 0.00 0.00 79 1021.6
20260507223607 1 106 0.0 0.0 0.00 0.00 0.00 79 1021.5
20260507223108 2 106 0.0 0.0 0.00 0.00 0.00 78 1021.5
20260507222607 2 106 0.0 0.0 0.00 0.00 0.00 79 1021.5
20260507222107 2 106 0.0 0.0 0.00 0.00 0.00 78 1021.5
20260507221606 2 106 0.0 0.0 0.00 0.00 0.00 78 1021.4
20260507221107 2 106 0.0 0.0 0.00 0.00 0.00 78 1021.4
20260507220607 2 106 0.0 0.0 0.00 0.00 0.00 78 1021.3
20260507220552 2 106 0.0 0.0 0.00 0.00 0.00 78 1021.4
20260507215607 2 106 0.0 0.0 0.00 0.00 0.00 77 1021.3
20260507215326 2 106 0.0 0.0 0.00 0.00 0.00 77 1021.3
20260507214606 2 106 0.0 0.0 0.00 0.00 0.00 77 1021.3
20260507214106 2 106 0.0 0.0 0.00 0.00 0.00 76 1021.2
20260507213605 2 106 0.0 0.0 0.00 0.00 0.00 76 1021.2
20260507213106 2 106 0.0 3.2 0.00 0.00 0.00 76 1021.0
20260507212826 2 106 0.0 3.2 0.00 0.00 0.00 76 1021.0
20260507212106 3 106 3.2 3.2 0.00 0.00 0.00 75 1021.0
20260507211605 3 106 0.0 3.2 0.00 0.00 0.00 74 1021.1
20260507211105 3 106 1.6 3.2 0.00 0.00 0.00 74 1021.0
20260507210606 3 106 1.6 3.2 0.00 0.00 0.00 73 1021.0
20260507210105 3 106 0.0 0.0 0.00 0.00 0.00 73 1020.9
20260507205824 3 106 0.0 0.0 0.00 0.00 0.00 72 1020.9
20260507205102 3 106 0.0 1.6 0.00 0.00 0.00 72 1020.8
20260507204824 3 106 0.0 3.2 0.00 0.00 0.00 72 1020.7
20260507204104 3 106 3.2 3.2 0.00 0.00 0.00 70 1020.7
20260507203826 4 106 0.0 0.0 0.00 0.00 0.00 69 1020.7
20260507203104 4 106 0.0 0.0 0.00 0.00 0.00 69 1020.6
20260507202827 4 106 0.0 0.0 0.00 0.00 0.00 70 1020.5
20260507202331 4 106 0.0 0.0 0.00 0.00 0.00 68 1020.5
20260507201603 4 106 0.0 1.6 0.00 0.00 0.00 68 1020.4
20260507201102 4 106 0.0 1.6 0.00 0.00 0.00 68 1020.4
20260507200603 4 106 1.6 3.2 0.00 0.00 0.00 67 1020.4
20260507200105 4 106 1.6 3.2 0.00 0.00 0.00 66 1020.2
20260507195605 4 106 1.6 3.2 0.00 0.00 0.00 65 1020.1
20260507195106 5 106 1.6 3.2 0.00 0.00 0.00 64 1020.1
20260507194605 5 106 1.6 3.2 0.00 0.00 0.00 63 1020.0
20260507194105 5 106 1.6 3.2 0.00 0.00 0.00 61 1020.0
20260507194050 5 106 0.0 1.6 0.00 0.00 0.00 59 1019.9
20260507193104 6 106 0.0 1.6 0.00 0.00 0.00 58 1019.8
20260507192824 6 106 0.0 1.6 0.00 0.00 0.00 57 1019.7
20260507192546 6 106 0.0 3.2 0.00 0.00 0.00 57 1019.6
20260507191605 6 106 1.6 6.4 0.00 0.00 0.00 57 1019.5
20260507191106 6 106 1.6 6.4 0.00 0.00 0.00 57 1019.5
20260507190605 6 104 3.2 6.4 0.00 0.00 0.00 54 1019.5
20260507190329 7 141 3.2 3.2 0.00 0.00 0.00 52 1019.4
20260507185605 7 141 1.6 3.2 0.00 0.00 0.00 50 1019.4
20260507185328 7 141 1.6 4.8 0.00 0.00 0.00 49 1019.3
20260507184605 7 141 1.6 4.8 0.00 0.00 0.00 47 1019.1
20260507184105 8 141 3.2 4.8 0.00 0.00 0.00 44 1019.1
20260507183605 8 141 3.2 4.8 0.00 0.00 0.00 42 1019.1
20260507183105 8 141 3.2 4.8 0.00 0.00 0.00 42 1019.1
20260507182605 8 141 1.6 8.0 0.00 0.00 0.00 41 1019.0
20260507182105 8 154 4.8 8.0 0.00 0.00 0.00 39 1018.9
20260507181605 8 166 1.6 9.7 0.00 0.00 0.00 39 1018.8
20260507181105 8 182 4.8 9.7 0.00 0.00 0.00 39 1018.7
20260507180829 9 199 3.2 9.7 0.00 0.00 0.00 38 1018.6
20260507180106 9 162 6.4 11.3 0.00 0.00 0.00 38 1018.7
20260507175605 9 186 6.4 11.3 0.00 0.00 0.00 38 1018.5
20260507175331 9 138 1.6 9.7 0.00 0.00 0.00 37 1018.5
20260507174826 10 173 3.2 9.7 0.00 0.00 0.00 36 1018.4
20260507174105 10 159 3.2 8.0 0.00 0.00 0.00 33 1018.3
20260507173832 10 183 4.8 11.3 0.00 0.00 0.00 35 1018.3
20260507173105 10 209 3.2 11.3 0.00 0.00 0.00 35 1018.2
20260507172824 10 159 6.4 9.7 0.00 0.00 0.00 35 1018.2
20260507172105 10 165 4.8 9.7 0.00 0.00 0.00 34 1018.2
20260507171603 10 168 4.8 14.5 0.00 0.00 0.00 34 1018.1
20260507171103 10 216 6.4 14.5 0.00 0.00 0.00 34 1018.0
20260507170604 10 192 3.2 9.7 0.00 0.00 0.00 33 1018.0
20260507170104 10 176 3.2 14.5 0.00 0.00 0.00 35 1017.9
20260507165605 10 193 6.4 14.5 0.00 0.00 0.00 35 1017.9
20260507165105 10 171 8.0 11.3 0.00 0.00 0.00 33 1017.8
20260507164829 10 173 3.2 14.5 0.00 0.00 0.00 33 1017.7
20260507164106 11 248 4.8 14.5 0.00 0.00 0.00 33 1017.6
20260507163605 11 175 3.2 14.5 0.00 0.00 0.00 34 1017.6
20260507163548 11 202 6.4 14.5 0.00 0.00 0.00 33 1017.5
20260507162605 11 173 4.8 11.3 0.00 0.00 0.00 34 1017.5
20260507162105 11 209 4.8 11.3 0.00 0.00 0.00 34 1017.6
20260507161605 11 278 6.4 11.3 0.00 0.00 0.00 34 1017.5
20260507161322 11 188 8.0 16.1 0.00 0.00 0.00 32 1017.6
20260507160603 11 161 6.4 16.1 0.00 0.00 0.00 26 1017.6
20260507160306 11 138 6.4 9.7 0.00 0.00 0.00 25 1017.5
20260507155105 11 110 12.9 19.3 0.00 0.00 0.00 26 1017.4
20260507154605 11 157 8.0 14.5 0.00 0.00 0.00 26 1017.4
20260507154104 11 197 8.0 17.7 0.00 0.00 0.00 25 1017.2
20260507153605 11 171 11.3 17.7 0.00 0.00 0.00 26 1017.2
20260507153329 11 151 9.7 16.1 0.00 0.00 0.00 27 1017.2
20260507152605 11 149 9.7 16.1 0.00 0.00 0.00 28 1017.1
20260507152105 11 151 11.3 16.1 0.00 0.00 0.00 28 1017.1
20260507151605 12 147 9.7 16.1 0.00 0.00 0.00 28 1017.1
20260507151106 12 154 4.8 16.1 0.00 0.00 0.00 29 1017.0
20260507150605 12 264 9.7 17.7 0.00 0.00 0.00 29 1017.1
20260507150321 12 186 11.3 17.7 0.00 0.00 0.00 30 1017.0
20260507145605 12 164 8.0 14.5 0.00 0.00 0.00 31 1017.0
20260507145105 12 219 4.8 19.3 0.00 0.00 0.00 32 1017.0
20260507144832 12 127 9.7 19.3 0.00 0.00 0.00 31 1016.9
20260507144104 12 137 14.5 20.9 0.00 0.00 0.00 31 1016.9
20260507143605 12 107 14.5 20.9 0.00 0.00 0.00 32 1016.9
20260507143105 12 137 8.0 17.7 0.00 0.00 0.00 33 1016.8
20260507142605 12 162 9.7 16.1 0.00 0.00 0.00 32 1016.8
20260507142104 12 137 9.7 16.1 0.00 0.00 0.00 31 1016.8
20260507141605 12 159 9.7 17.7 0.00 0.00 0.00 32 1016.7
20260507141105 12 97 11.3 20.9 0.00 0.00 0.00 32 1016.7
20260507140604 12 175 9.7 20.9 0.00 0.00 0.00 32 1016.6
20260507140104 12 148 9.7 14.5 0.00 0.00 0.00 31 1016.5
20260507135605 12 175 6.4 14.5 0.00 0.00 0.00 33 1016.6
20260507135105 12 133 8.0 19.3 0.00 0.00 0.00 33 1016.6
20260507134603 12 133 11.3 20.9 0.00 0.00 0.00 33 1016.5
20260507134103 12 142 14.5 20.9 0.00 0.00 0.00 33 1016.4
20260507133604 12 192 4.8 19.3 0.00 0.00 0.00 32 1016.4
20260507133104 12 172 12.9 17.7 0.00 0.00 0.00 32 1016.4
20260507132604 12 152 9.7 19.3 0.00 0.00 0.00 34 1016.3
20260507132104 12 125 9.7 19.3 0.00 0.00 0.00 32 1016.3
20260507131604 12 127 11.3 19.3 0.00 0.00 0.00 32 1016.2
20260507131324 12 152 11.3 24.1 0.00 0.00 0.00 33 1016.2
20260507130603 12 111 11.3 24.1 0.00 0.00 0.00 31 1016.2
20260507130104 12 72 8.0 24.1 0.00 0.00 0.00 32 1016.2
20260507125603 12 137 9.7 24.1 0.00 0.00 0.00 32 1016.2
20260507125104 12 107 12.9 20.9 0.00 0.00 0.00 31 1016.2
20260507124603 12 116 6.4 25.7 0.00 0.00 0.00 30 1016.1
20260507124103 12 135 14.5 25.7 0.00 0.00 0.00 29 1016.1
20260507123604 12 94 9.7 22.5 0.00 0.00 0.00 28 1016.1
20260507123103 13 124 9.7 19.3 0.00 0.00 0.00 28 1016.1
20260507122604 13 164 9.7 17.7 0.00 0.00 0.00 29 1016.0
20260507122329 13 111 12.9 17.7 0.00 0.00 0.00 27 1016.0
20260507121604 13 231 6.4 11.3 0.00 0.00 0.00 27 1016.0
20260507121259 13 190 6.4 11.3 0.00 0.00 0.00 28 1015.9
20260507120103 13 203 4.8 11.3 0.00 0.00 0.00 27 1016.0
20260507115824 13 279 4.8 8.0 0.00 0.00 0.00 27 1015.9
20260507115103 13 161 4.8 9.7 0.00 0.00 0.00 28 1016.0
20260507115041 13 165 6.4 9.7 0.00 0.00 0.00 27 1016.0
20260507114103 13 275 4.8 8.0 0.00 0.00 0.00 28 1015.9
20260507113603 13 255 3.2 16.1 0.00 0.00 0.00 29 1015.9
20260507113324 13 203 8.0 22.5 0.00 0.00 0.00 28 1015.9
20260507112604 12 111 11.3 22.5 0.00 0.00 0.00 29 1015.9
20260507112327 12 54 8.0 14.5 0.00 0.00 0.00 29 1015.9
20260507111603 12 137 4.8 19.3 0.00 0.00 0.00 29 1015.9
20260507111103 11 165 9.7 19.3 0.00 0.00 0.00 28 1016.0
20260507110604 12 110 12.9 17.7 0.00 0.00 0.00 28 1015.9
20260507110328 12 62 4.8 19.3 0.00 0.00 0.00 28 1015.8
20260507105603 12 149 9.7 19.3 0.00 0.00 0.00 27 1015.9
20260507105104 12 207 6.4 14.5 0.00 0.00 0.00 27 1015.8
20260507104829 12 141 4.8 14.5 0.00 0.00 0.00 28 1015.9
20260507104104 12 138 6.4 19.3 0.00 0.00 0.00 27 1015.8
20260507103603 12 179 8.0 19.3 0.00 0.00 0.00 28 1015.7
20260507103104 12 152 8.0 19.3 0.00 0.00 0.00 28 1015.7
20260507102603 11 203 6.4 19.3 0.00 0.00 0.00 27 1015.7
20260507102103 12 185 8.0 14.5 0.00 0.00 0.00 26 1015.7
20260507101603 12 148 8.0 16.1 0.00 0.00 0.00 28 1015.7
20260507101103 11 162 9.7 16.1 0.00 0.00 0.00 27 1015.7
20260507100823 11 128 6.4 17.7 0.00 0.00 0.00 27 1015.6
20260507100105 11 83 12.9 17.7 0.00 0.00 0.00 27 1015.7
20260507095824 11 137 8.0 19.3 0.00 0.00 0.00 27 1015.6
20260507095104 11 55 9.7 19.3 0.00 0.00 0.00 27 1015.5
20260507094830 11 80 6.4 16.1 0.00 0.00 0.00 28 1015.6
20260507094104 11 45 4.8 19.3 0.00 0.00 0.00 28 1015.5
20260507093604 11 141 9.7 20.9 0.00 0.00 0.00 29 1015.5
20260507093324 11 125 11.3 20.9 0.00 0.00 0.00 28 1015.5
20260507092604 11 154 8.0 17.7 0.00 0.00 0.00 29 1015.5
20260507092103 11 78 9.7 16.1 0.00 0.00 0.00 29 1015.5
20260507091820 11 110 9.7 16.1 0.00 0.00 0.00 28 1015.5
20260507091104 11 97 8.0 17.7 0.00 0.00 0.00 30 1015.4
20260507090604 11 90 11.3 17.7 0.00 0.00 0.00 28 1015.5
20260507090103 11 97 8.0 14.5 0.00 0.00 0.00 29 1015.4
20260507085604 11 73 4.8 19.3 0.00 0.00 0.00 29 1015.4
20260507085104 11 117 12.9 19.3 0.00 0.00 0.00 28 1015.3
20260507084604 11 127 3.2 16.1 0.00 0.00 0.00 29 1015.4
20260507084104 11 80 6.4 16.1 0.00 0.00 0.00 29 1015.4
20260507083604 11 180 6.4 14.5 0.00 0.00 0.00 29 1015.4
20260507083104 11 72 8.0 14.5 0.00 0.00 0.00 29 1015.4
20260507083049 11 99 3.2 6.4 0.00 0.00 0.00 29 1015.4
20260507082104 11 259 4.8 8.0 0.00 0.00 0.00 29 1015.3
20260507081603 11 196 4.8 8.0 0.00 0.00 0.00 27 1015.3
20260507081103 11 185 3.2 6.4 0.00 0.00 0.00 29 1015.3
20260507080604 11 172 4.8 9.7 0.00 0.00 0.00 29 1015.2
20260507080104 11 148 6.4 9.7 0.00 0.00 0.00 30 1015.3
20260507075604 11 121 4.8 9.7 0.00 0.00 0.00 32 1015.3
20260507075104 10 180 1.6 9.7 0.00 0.00 0.00 32 1015.3
20260507074603 10 173 6.4 9.7 0.00 0.00 0.00 32 1015.3
20260507074103 10 214 3.2 8.0 0.00 0.00 0.00 36 1015.1
20260507073603 10 289 1.6 6.4 0.00 0.00 0.00 35 1015.2
20260507073103 10 175 4.8 6.4 0.00 0.00 0.00 33 1015.2
20260507072603 10 266 4.8 6.4 0.00 0.00 0.00 35 1015.2
20260507072103 10 196 4.8 6.4 0.00 0.00 0.00 33 1015.2
20260507071604 10 200 3.2 9.7 0.00 0.00 0.00 34 1015.2
20260507071103 10 207 4.8 9.7 0.00 0.00 0.00 37 1015.3
20260507070603 9 207 4.8 8.0 0.00 0.00 0.00 37 1015.2
20260507065603 9 158 6.4 14.5 0.00 0.00 0.00 38 1015.3
20260507065104 9 134 6.4 14.5 0.00 0.00 0.00 37 1015.2
20260507064824 10 83 3.2 8.0 0.00 0.00 0.00 36 1015.2
20260507064104 9 128 3.2 8.0 0.00 0.00 0.00 40 1015.2
20260507063604 8 175 3.2 9.7 0.00 0.00 0.00 37 1015.2
20260507063104 8 149 6.4 11.3 0.00 0.00 0.00 36 1015.2
20260507062604 8 137 9.7 11.3 0.00 0.00 0.00 39 1015.2
20260507062104 8 121 1.6 8.0 0.00 0.00 0.00 44 1015.2
20260507061829 8 173 3.2 8.0 0.00 0.00 0.00 45 1015.1
20260507061103 8 195 4.8 9.7 0.00 0.00 0.00 46 1015.1
20260507060604 8 162 4.8 9.7 0.00 0.00 0.00 49 1015.1
20260507060103 7 135 3.2 11.3 0.00 0.00 0.00 52 1015.1
20260507055830 7 110 8.0 11.3 0.00 0.00 0.00 52 1015.1
20260507055103 7 161 4.8 8.0 0.00 0.00 0.00 54 1015.0
20260507055054 7 127 4.8 8.0 0.00 0.00 0.00 60 1014.9
20260507054104 7 217 3.2 8.0 0.00 0.00 0.00 62 1015.0
20260507053603 7 199 4.8 8.0 0.00 0.00 0.00 69 1015.0
20260507053102 6 124 3.2 6.4 0.00 0.00 0.00 72 1015.0
20260507052603 6 135 6.4 6.4 0.00 0.00 0.00 73 1014.9
20260507052325 6 175 3.2 6.4 0.00 0.00 0.00 75 1015.0
20260507051604 6 147 3.2 8.0 0.00 0.00 0.00 77 1014.9
20260507051324 5 125 6.4 9.7 0.00 0.00 0.00 78 1014.9
20260507050603 5 154 8.0 9.7 0.00 0.00 0.00 78 1014.8
20260507045602 5 148 8.0 9.7 0.00 0.00 0.00 80 1014.9
20260507045548 5 128 3.2 6.4 0.00 0.00 0.00 81 1014.8
20260507044603 5 62 4.8 6.4 0.00 0.00 0.00 81 1014.9
20260507044325 5 47 3.2 4.8 0.00 0.00 0.00 83 1014.9